Satellite-Ground Cal/Val Region Overpasses Predictions

Prediction of Satellite NPP Overpassing Cal/Val Region: PacNW

Region Location: (Latitude: 10.00, Longitude: 139.50) to (Latitude: 22.70, Longitude: 165.60).

Table of predicted overpasses for the next 14.0 days since TLE Epoch: 10/1/2016
Interval Starting Time Starting Location Ending Time Ending Location
1 10/02/2016 02:27:10 ( 10.01, 163.10) 10/02/2016 02:30:46 ( 22.69, 160.09)
2 10/02/2016 14:59:04 ( 22.66, 160.31) 10/02/2016 15:02:39 ( 10.03, 157.31)
3 10/03/2016 02:10:53 ( 19.64, 165.59) 10/03/2016 02:11:45 ( 22.69, 164.84)
4 10/03/2016 03:49:39 ( 10.02, 142.47) 10/03/2016 03:53:12 ( 22.52, 139.51)
5 10/03/2016 14:40:02 ( 22.66, 165.06) 10/03/2016 14:43:37 ( 10.03, 162.06)
6 10/03/2016 16:21:32 ( 22.65, 139.69) 10/03/2016 16:21:44 ( 21.95, 139.51)
7 10/04/2016 03:30:37 ( 10.02, 147.23) 10/04/2016 03:34:13 ( 22.70, 144.22)
8 10/04/2016 16:02:31 ( 22.65, 144.44) 10/04/2016 16:06:06 ( 10.03, 141.44)
9 10/05/2016 03:11:36 ( 10.02, 151.98) 10/05/2016 03:15:12 ( 22.70, 148.97)
10 10/05/2016 15:43:29 ( 22.65, 149.19) 10/05/2016 15:47:04 ( 10.03, 146.20)
11 10/06/2016 02:52:34 ( 10.02, 156.73) 10/06/2016 02:56:09 ( 22.64, 153.74)
12 10/06/2016 15:24:28 ( 22.65, 153.95) 10/06/2016 15:28:03 ( 10.02, 150.95)
13 10/07/2016 02:33:33 ( 10.02, 161.49) 10/07/2016 02:37:08 ( 22.64, 158.49)
14 10/07/2016 15:05:26 ( 22.65, 158.70) 10/07/2016 15:09:01 ( 10.02, 155.70)
15 10/08/2016 02:15:19 ( 12.84, 165.59) 10/08/2016 02:18:06 ( 22.64, 163.24)
16 10/08/2016 03:56:01 ( 10.03, 140.87) 10/08/2016 03:57:41 ( 15.90, 139.51)
17 10/08/2016 14:46:25 ( 22.65, 163.45) 10/08/2016 14:50:00 ( 10.02, 160.46)
18 10/09/2016 03:37:00 ( 10.03, 145.62) 10/09/2016 03:40:35 ( 22.65, 142.62)
19 10/09/2016 14:30:30 ( 11.73, 165.60) 10/09/2016 14:30:59 ( 10.02, 165.21)
20 10/09/2016 16:08:53 ( 22.70, 142.84) 10/09/2016 16:12:29 ( 10.02, 139.83)
21 10/10/2016 03:17:58 ( 10.03, 150.37) 10/10/2016 03:21:33 ( 22.65, 147.38)
22 10/10/2016 15:49:51 ( 22.70, 147.60) 10/10/2016 15:53:27 ( 10.02, 144.59)
23
